{"data":{"norad_id":37742,"epoch":"2026-09-20T01:00:49.967136Z","epoch_age_seconds":54017,"freshness":"FRESH","line1":"1 37742U 11033D   26263.04224499 -.00000100  00000+0  19506-4 0  9990","line2":"2 37742  52.0120 264.5122 0000406 111.2856 266.2085 12.62265340701773","mean_motion":12.6226534,"eccentricity":4.06e-5,"inclination_deg":52.012,"raan_deg":264.5122,"arg_perigee_deg":111.2856,"mean_anomaly_deg":266.2085,"bstar":1.9506e-5,"rev_number":70177,"period_min":114.08061002451,"perigee_km":1413.2917538582,"apogee_km":1413.9244435602,"semimajor_km":7791.7450987092,"source":"CELESTRAK","updated_at":"2026-09-20T09:00:45.038767Z"}}